Weather History for Yellowstone, WY

Change the Weather History Date:

Friday, February 22, 2013

  Actual Average Record
Temperature  
Mean Temperature 9 °F 16 °F  
Max Temperature 21 °F 29 °F 41 °F (2012)
Min Temperature -4 °F 3 °F -23 °F (2010)
Degree Days  
Heating Degree Days 56 49  
Month to date heating degree days 1107 1119  
Since 1 July heating degree days 7526 7650  
Cooling Degree Days 0 0  
Month to date cooling degree days 0 0  
Year to date cooling degree days 0 0  
Moisture  
Dew Point 4 °F    
Average Humidity 69    
Maximum Humidity 88    
Minimum Humidity 49    
Precipitation  
Precipitation 0.05 in 0.05 in 0.52 in (2012)
Month to date precipitation 0.52 1.10  
Year to date precipitation 1.94 3.21  
Sea Level Pressure  
Sea Level Pressure 30.10 in    
Wind  
Wind Speed 2 mph (WNW)    
Max Wind Speed 12 mph    
Max Gust Speed 22 mph    
T = Trace of Precipitation, MM = Missing Value Source: NWS Daily Summary

Daily Weather History Graph

Daily Weather History Graph

Search for Another Location

Airport:

Trip Planner

Search our weather history database for the weather conditions in past years. The results will help you decide how hot, cold, wet, or windy it might be!

Date:

Astronomy

Feb. 22, 2013 Rise Set
Actual Time 7:10 AM MST 6:00 PM MST
Civil Twilight 6:40 AM MST 6:30 PM MST
Nautical Twilight 6:07 AM MST 7:03 PM MST
Astronomical Twilight 5:33 AM MST 7:37 PM MST
Moon 3:10 PM MST (2/22) 5:02 AM MST (2/22)
Length of Visible Light 11h 49m
Length of Day
10h 50m
Waxing Gibbous, 90% of the Moon is Illuminated
Feb 22
Waxing Gibbous
Feb 25
Full
Mar 4
Last Quarter
Mar 11
New
Mar 19
First Quarter

Hourly Weather History & Observations

Time (MST) Temp. Windchill Dew Point Humidity Pressure Visibility Wind Dir Wind Speed Gust Speed Precip Events Conditions
12:56 AM 1.9 °F - -2.0 °F 83% 30.06 in - Calm Calm - N/A   Unknown
1:56 AM -0.0 °F - -4.0 °F 83% 30.08 in - Calm Calm - N/A   Unknown
2:56 AM 1.9 °F - -2.9 °F 80% 30.04 in - Calm Calm - N/A   Unknown
3:56 AM -0.0 °F - -5.1 °F 79% 30.06 in - Calm Calm - N/A   Unknown
4:56 AM -0.9 °F - -5.1 °F 83% 30.09 in - Calm Calm - N/A   Unknown
5:56 AM -4.0 °F - -9.0 °F 79% 30.16 in - Calm Calm - N/A   Unknown
6:56 AM -2.9 °F - -7.1 °F 82% 30.20 in - Calm Calm - N/A   Unknown
7:56 AM -0.0 °F - -4.0 °F 83% 30.24 in - Calm Calm - N/A   Unknown
8:56 AM 7.0 °F - 3.9 °F 87% 30.23 in - Calm Calm - N/A   Unknown
9:56 AM 10.0 °F 1.8 °F 5.0 °F 80% 30.20 in - East 4.6 mph - N/A   Unknown
10:56 AM 12.9 °F 6.9 °F 6.1 °F 74% 30.17 in - ENE 3.5 mph - N/A   Unknown
11:56 AM 19.0 °F 12.3 °F 3.9 °F 52% 30.12 in - Variable 4.6 mph - 0.01 in   Unknown
12:56 PM 19.0 °F 8.2 °F 3.0 °F 50% 30.09 in - West 9.2 mph 17.3 mph N/A   Unknown
1:56 PM 19.9 °F 10.1 °F 7.0 °F 57% 30.08 in - West 8.1 mph - N/A   Unknown
2:56 PM 19.0 °F 11.1 °F 9.0 °F 65% 30.06 in - Variable 5.8 mph - N/A   Unknown
3:56 PM 17.1 °F 5.8 °F 6.1 °F 62% 30.10 in - West 9.2 mph 17.3 mph N/A   Unknown
4:56 PM 15.1 °F 7.7 °F 8.1 °F 74% 30.14 in - Variable 4.6 mph - N/A   Unknown
5:56 PM 14.0 °F 8.2 °F 8.1 °F 77% 30.15 in - Variable 3.5 mph - N/A   Unknown
6:56 PM 14.0 °F - 9.0 °F 80% 30.14 in - Calm Calm - N/A   Unknown
7:56 PM 15.1 °F - 10.0 °F 80% 30.11 in - Calm Calm - N/A   Unknown
8:56 PM 15.1 °F - 10.9 °F 84% 30.06 in - Calm Calm - N/A   Unknown
9:56 PM 16.0 °F - 12.0 °F 84% 30.02 in - Calm Calm - 0.02 in   Unknown
10:56 PM 16.0 °F - 12.9 °F 88% 29.98 in - Calm Calm - N/A   Unknown
11:56 PM 16.0 °F - 12.9 °F 88% 29.92 in - Calm Calm - 0.02 in   Unknown